Simultaneous Nadir Overpasses (SNOs) Predictions

Prediction of SNOs between LANDSAT-8 and METOP-B Satellite Orbit:

Table of predicted SNOs for the next 14.0 days since TLE Epoch: 10/12/2019
Index Date (LANDSAT-8) Time (LANDSAT-8) Lat,Lon (LANDSAT-8) SZA (LANDSAT-8 ) Date (METOP-B) Time (METOP-B) Lat,Lon (METOP-B) SZA (METOP-B ) Distance(km) Time Diff (sec)
1 10/13/2019 15:46:12 81.16, -15.96 91.40 10/13/2019 15:45:09 81.16, -16.04 91.37 1.40 63
2 10/13/2019 16:35:38 -81.18, 152.00 88.54 10/13/2019 16:35:48 -81.19, 152.15 88.52 2.70 10
3 10/16/2019 11:20:26 81.17, 50.69 92.49 10/16/2019 11:19:29 81.16, 50.51 92.44 3.26 57
4 10/16/2019 12:09:52 -81.19,-141.34 87.45 10/16/2019 12:10:08 -81.19,-141.29 87.44 0.91 16
5 10/19/2019 06:54:42 81.16, 116.94 93.50 10/19/2019 06:53:50 81.17, 117.04 93.49 1.75 52
6 10/19/2019 07:44:08 -81.18, -75.06 86.44 10/19/2019 07:44:30 -81.18, -75.12 86.44 1.04 22
7 10/22/2019 02:28:57 81.17,-176.45 94.54 10/22/2019 02:28:11 81.17,-176.44 94.52 0.21 46
8 10/22/2019 03:18:23 -81.20, -8.44 85.40 10/22/2019 03:18:51 -81.19, -8.60 85.41 2.79 28
9 10/24/2019 22:03:11 81.18,-109.87 95.55 10/24/2019 22:02:31 81.18,-109.94 95.52 1.43 40




NCC Satellite Simultaneous Nadir Overpasses (SNOs) Prediction Service
